Regional Weather Roundup
Issued by NWS

Home | Current Version | Previous Version | Text Only | Print | Product List | Glossary Off
Versions: 1 2 3 4 5 6 7 8 9 10 11 12 13 14 15 16 17 18 19 20 21 22 23 24 25 26 27 28 29 30 31 32 33 34 35 36 37 38 39 40 41 42 43 44 45 46 47 48 49 50

000
ASUS43 KMKX 161900
RWRWI

WISCONSIN REGIONAL WEATHER ROUNDUP
NATIONAL WEATHER SERVICE MILWAUKEE/SULLIVAN WI
200 PM CDT TUE SEP 16 2014

NOTE: "FAIR" INDICATES FEW OR NO CLOUDS BELOW 12,000 FEET WITH NO
SIGNIFICANT WEATHER AND/OR OBSTRUCTIONS TO VISIBILITY.

WIZ001-002-006>008-014>016-023>028-162000-
NORTHWEST WISCONSIN

CITY           SKY/WX    TMP DP  RH WIND       PRES   REMARKS
SUPERIOR ARPT  SUNNY     69  44  41 W15       30.03F
ASHLAND        SUNNY     67  45  45 SW12G21   30.03F
HAYWARD        SUNNY     65  39  38 SW9G18    30.08F
SIREN          SUNNY     65  41  41 SW9G17    30.09F
RICE LAKE      SUNNY     65  40  40 S10G17    30.12F
LADYSMITH      SUNNY     64  43  46 SW8G16    30.12F
EAU CLAIRE     SUNNY     65  42  43 SW6       30.11F
MENOMONIE      CLEAR     65  39  38 S5        30.12F
NEW RICHMOND   SUNNY     65  40  39 W9        30.12F
OSCEOLA        SUNNY     65  42  42 W10       30.13F
$$

WIZ003>005-009-010-017-018-162000-
NORTH CENTRAL WISCONSIN

CITY           SKY/WX    TMP DP  RH WIND       PRES   REMARKS
WOODRUFF       SUNNY     64  41  42 W13       30.06F
RHINELANDER    SUNNY     64  40  41 W14G21    30.08F
EAGLE RIVER    MOSUNNY   64  37  37 W16       30.06S
LAND O LAKES   SUNNY     64  38  38 W10       30.05F
PHILLIPS       SUNNY     64  42  45 SW7       30.08F
TOMAHAWK       SUNNY     63  39  42 SW8       30.09F
MEDFORD        SUNNY     61  41  48 SW8       30.12F
MERRILL        PTSUNNY   64  42  46 W9G18     30.10S
$$

WIZ029-030-035-036-043>047-162000-
CENTRAL WISCONSIN

CITY           SKY/WX    TMP DP  RH WIND       PRES   REMARKS
WAUSAU         SUNNY     64  41  42 W12       30.09F
MOSINEE        NOT AVBL
MARSHFIELD     SUNNY     64  42  44 SW12      30.12F
STEVENS POINT  SUNNY     61  39  45 W8        30.13F
WAUPACA        SUNNY     66  40  39 SW6       30.13F
WAUTOMA        NOT AVBL
WISC RAPIDS    SUNNY     64  41  42 W9        30.13F
CAMP DOUGLAS   NOT AVBL
$$

WIZ011>013-019>022-031-037>040-048>050-162000-
NORTHEAST WISCONSIN

CITY           SKY/WX    TMP DP  RH WIND       PRES   REMARKS
ANTIGO         SUNNY     62  43  49 W10       30.10S
STURGEON BAY   SUNNY     63  39  42 W14       30.09F
GREEN BAY      SUNNY     64  43  46 W12       30.10F
MANITOWOC      NOT AVBL
APPLETON       SUNNY     63  39  42 W9        30.13F
CLINTONVILLE   SUNNY     64  39  39 W9G17     30.10F
OSHKOSH        SUNNY     62  42  47 SW6       30.13F
$$

WIZ032>034-041-042-053>061-162000-
SOUTHWEST WISCONSIN

CITY           SKY/WX    TMP DP  RH WIND       PRES   REMARKS
LA CROSSE      SUNNY     65  42  43 VRB6      30.14F
SPARTA         SUNNY     63  38  39 W7        30.16S
VIROQUA        FAIR      62  41  45 W8        30.16F
BOSCOBEL       SUNNY     66  43  43 MISG      30.16F
PRAIRIE DU CHI SUNNY     64  40  41 SW3       30.16F
PLATTEVILLE    FAIR      63  43  48 W10       30.18F
$$

WIZ056-057-062-063-064-067-068-162000-
SOUTH CENTRAL WISCONSIN

CITY           SKY/WX    TMP DP  RH WIND       PRES   REMARKS
BARABOO/DELLS  MOSUNNY   63  39  41 W6        30.15F
LONE ROCK      NOT AVBL
WATERTOWN      MOSUNNY   62  42  49 SW6       30.15F
MADISON        MOSUNNY   62  40  44 W6        30.15F
MIDDLETON      FAIR      63  40  42 W5        30.17F
MONROE         SUNNY     61  41  48 W6        30.16F
JANESVILLE     SUNNY     63  37  39 NW7       30.15F
$$

WIZ051-052-058>065-066-070>072-162000-
SOUTHEAST WISCONSIN

CITY           SKY/WX    TMP DP  RH WIND       PRES   REMARKS
MILWAUKEE      MOSUNNY   63  38  39 NW8       30.15F
WAUKESHA       SUNNY     59  41  51 NW5       30.16F
MILWAUKEE/TIMM SUNNY     61  37  41 SW9       30.16F
RACINE         SUNNY     61  40  45 E7        30.16F
BURLINGTON     SUNNY     60  38  43 W3        30.16F
KENOSHA        SUNNY     62  41  46 CALM      30.15F
FOND DU LAC    SUNNY     62  40  44 NW6       30.13F
SHEBOYGAN      SUNNY     63  38  39 VRB6      30.13F
WEST BEND      MOSUNNY   59  37  44 W9        30.15F
JUNEAU         SUNNY     60  41  49 SW8       30.16F
$$

LSZ147-162-162000-
LAKE SUPERIOR

STATION/POSITION TIME  TEMP    WIND        PRES    WAVE
                       AIR SEA DIR/SP/G            HT/PER
                 (UTC) (F)     (DEG/KT/KT) (MB)    (FT/S)
W MID LAKE BUOY  1750   51 47  230/ 14/ 16 1015.1F   4/ 6
DEVILS ISLAND    1800   57     230/ 19/ 23 1015.9F
PORT WING        1800   64     260/ 11/ 15 1016.9F
SAXON HARBOR     1800   66     230/  8/ 11 1017.3F
$$

LMZ867-665-643>646-162000-
LAKE MICHIGAN

STATION/POSITION TIME  TEMP    WIND        PRES    WAVE
                       AIR SEA DIR/SP/G            HT/PER
                 (UTC) (F)     (DEG/KT/KT) (MB)    (FT/S)
N MID LAKE BUOY  1750   55 58  210/ 16/ 17 1018.7F   1/ 3
NORTHPORT PIER   1800   62     180/  5/ 13 1017.9F
KEWAUNEE LAKESHO 1800   61     260/  5/  9 1018.9F
SHEBOYGAN LAKESH 1800   59 53  230/  4/  5 1021.2F
PORT WASHINGTON  1800   63     260/  5/  8 1021.7
ATWATER BUOY     1800   58     120/  6/  8 1022.3F
MILWAUKEE LAKESH 1800   57     100/  6/  7   N/A
S MID LAKE BUOY  1750   58 64  280/  6/ 10 1022.0F   2/ 4
KENOSHA   LAKESH 1800   60     290/  7/ 10 1021.0F
$$

TC  - TEMPERATURE IN CELSIUS
VSB - VISIBILITY IN STATUTE MILES
WCI - WIND CHILL INDEX
HX  - HEAT INDEX




USA.gov is the U.S. government's official web portal to all federal, state and local government web resources and services.